Wetbulb
32.89 33.49 34.54 36.07 37.46 37.55 37.32 37.69 38.98 39.62 39.34 37.90 36.81 37.26 38.76 40.48 41.57 43.33 44.97 46.03 46.03 45.68 45.81 47.47 47.06 46.43 45.85 45.77 45.99 46.34 46.79 47.56 47.69 47.69 47.64 47.87 47.69 47.56 47.60 47.87 48.10 48.46 48.95 49.36 49.63 49.90 50.12 50.35 50.76 51.48 52.11 52.83 53.20 53.47 53.43 52.83 51.92 51.73 51.96 52.29 52.52 52.38 51.97 51.56 51.43 51.34 51.33 51.38 51.48
31.53 32.79 35.00 38.28 38.99 38.53 37.86 38.04 38.53 38.58 38.13 37.32 37.24 36.87 37.13 38.58 40.80 42.89 44.49 45.31 45.89 45.81 45.90 47.06 46.34 45.80 45.35 45.18 45.63 46.03 46.52 47.15 47.24 47.11 46.97 47.11 47.15 47.24 47.33 47.65 47.83 48.32 48.86 49.13 49.36 49.58 49.86 50.04 50.49 51.17 51.85 52.25 52.52 52.97 53.29 53.15 52.24 51.78 51.74 51.88 52.11 51.97 51.66 51.34 51.25 51.29 51.34 51.29 51.34
30.90 32.37 33.94 35.48 34.88 35.01 35.46 35.64 35.40 34.25 33.58 34.29 36.21 37.02 37.42 38.19 39.34 41.63 43.71 44.13 45.48 46.03 46.21 46.21 45.58 45.04 44.68 44.73 45.14 45.63 46.30 46.97 46.43 46.43 46.52 46.52 46.57 46.79 47.06 47.33 47.42 48.01 48.68 49.04 49.13 49.36 49.58 49.77 50.49 51.17 51.57 51.75 52.03 52.48 53.02 53.38 52.74 52.10 51.74 51.79 51.88 51.66 51.25 51.07 51.07 51.25 51.30 51.16 50.98
30.35 31.16 31.84 32.23 32.07 32.32 33.40 35.86 34.25 33.12 33.21 35.13 35.48 36.02 36.60 37.09 37.84 39.14 40.82 42.60 44.27 45.35 45.36 44.35 44.31 44.14 44.01 44.15 44.51 45.23 45.99 46.62 45.85 45.44 45.62 46.21 46.25 46.57 46.93 47.29 46.79 47.24 48.10 48.77 48.95 49.13 49.36 49.68 50.49 51.08 51.30 51.21 51.66 52.07 52.43 52.70 52.75 52.38 51.97 51.92 51.84 51.39 50.89 50.75 51.07 51.21 51.21 51.03 50.71
29.89 30.74 31.47 31.99 31.87 32.58 33.79 34.91 32.94 32.66 33.64 35.58 35.64 35.52 35.42 35.85 36.52 36.78 38.39 43.48 43.17 43.94 44.15 42.45 43.00 43.11 43.17 43.18 43.97 44.87 45.54 45.72 45.63 44.86 44.62 46.12 46.17 46.48 46.75 47.29 46.93 47.33 48.05 48.50 48.68 48.95 49.18 49.54 50.35 50.80 51.03 51.12 51.76 51.98 51.93 51.75 52.02 52.11 52.11 52.14 51.87 51.24 50.79 50.57 50.76 50.98 50.98 50.67 50.43
30.00 30.27 30.94 32.03 31.85 32.67 33.68 34.43 32.96 32.73 33.59 35.09 33.53 33.38 34.33 35.74 35.79 37.04 39.09 41.50 42.10 43.22 43.79 42.98 42.94 42.51 42.30 42.69 43.47 44.42 45.18 45.22 45.08 43.90 43.13 44.54 45.71 46.21 46.48 46.84 47.24 47.69 48.05 48.23 48.46 48.73 48.95 49.22 50.03 50.44 50.71 51.17 51.71 51.80 51.47 51.11 51.20 51.53 51.80 51.88 51.74 51.28 50.74 50.40 50.53 50.67 50.67 50.35 50.03
30.77 30.05 29.96 30.93 31.87 32.96 33.84 34.42 34.54 34.01 33.22 32.81 32.49 32.66 33.20 33.99 35.33 37.55 39.70 41.04 41.73 42.44 43.05 43.13 41.72 41.33 41.75 42.76 42.55 42.86 43.63 44.54 44.27 43.50 42.72 42.81 44.36 45.49 46.16 46.52 47.02 47.42 47.78 48.01 48.19 48.46 48.77 49.18 49.68 49.90 50.26 50.85 51.39 51.39 51.06 50.71 50.62 50.76 51.03 51.39 51.61 51.38 50.97 50.44 50.44 50.44 50.26 49.99 49.71
31.98 31.22 30.91 31.44 32.33 32.96 33.42 34.13 34.44 34.43 34.14 33.98 33.09 33.18 33.72 34.36 36.96 39.04 40.55 41.08 41.34 41.92 42.05 40.81 39.03 39.68 41.27 42.56 42.37 42.04 41.90 42.09 42.40 42.32 42.45 43.54 43.86 44.58 45.44 46.30 46.57 46.88 47.29 47.69 47.87 48.14 48.50 49.13 49.40 49.45 49.77 50.36 50.90 50.85 50.66 50.48 50.21 50.17 50.26 50.62 51.12 51.34 51.20 50.62 50.35 50.08 49.90 49.67 49.49
31.43 31.44 31.85 32.52 33.16 33.39 33.48 34.01 33.79 33.90 33.76 33.22 33.46 34.91 36.27 36.46 38.13 39.76 40.87 41.14 41.41 41.80 41.87 40.74 40.20 40.74 41.68 42.39 41.88 42.06 42.60 43.08 41.90 41.72 42.45 43.77 43.32 43.54 44.44 45.89 46.12 46.39 46.75 47.24 47.65 47.92 48.28 48.82 49.00 49.13 49.45 50.09 50.36 50.40 50.26 50.12 49.80 49.53 49.54 50.04 50.35 50.71 50.93 50.80 50.16 49.71 49.54 49.49 49.13
30.27 30.50 31.27 32.25 33.12 33.76 34.03 34.03 33.71 33.58 33.62 33.50 34.04 36.56 39.03 39.62 39.75 40.19 40.88 41.57 41.86 41.73 41.57 41.57 41.49 41.43 41.51 42.10 41.72 41.58 41.84 43.00 41.86 41.82 42.68 44.18 43.82 43.09 43.17 44.98 45.66 45.89 46.07 46.12 47.15 47.74 48.14 48.37 48.46 48.69 49.09 49.81 49.99 49.90 49.76 49.76 49.44 49.04 49.00 49.49 49.58 49.85 50.03 50.34 49.80 49.31 48.99 49.04 48.86
30.45 30.85 31.53 32.52 33.33 34.09 34.54 34.24 34.90 34.97 34.33 33.05 34.09 36.60 39.03 40.08 40.72 41.16 41.34 41.46 41.24 41.14 41.22 41.75 41.63 41.39 41.42 41.93 42.10 42.46 42.45 41.82 41.45 42.50 43.82 44.00 43.46 42.68 42.72 44.62 45.48 45.80 45.93 46.07 46.75 47.42 47.83 47.96 47.92 48.10 48.55 49.31 49.63 49.63 49.49 49.40 49.17 48.81 48.64 48.91 48.99 49.04 49.17 49.53 49.22 48.86 48.50 48.55 48.45
31.00 31.72 32.62 33.48 33.97 34.25 34.35 34.35 35.28 35.46 34.92 33.54 34.31 35.42 36.74 37.93 39.49 40.75 41.30 40.89 40.24 40.57 41.36 42.01 41.97 41.76 41.71 42.14 42.28 42.60 42.82 42.91 43.05 43.41 43.77 43.82 43.50 43.14 43.32 44.85 45.48 45.75 46.07 46.48 45.93 46.07 46.70 47.15 47.20 47.47 48.05 48.77 49.13 49.23 49.09 49.00 48.86 48.59 48.37 48.32 48.41 48.46 48.55 48.77 48.64 48.37 48.14 48.14 48.01
32.16 32.75 33.38 33.93 34.15 33.88 33.65 34.01 34.41 34.54 34.36 33.89 34.18 34.50 34.86 35.79 37.89 39.39 40.20 40.16 40.28 40.89 41.68 42.18 42.14 42.01 41.97 42.14 42.45 42.39 42.43 43.10 43.14 43.28 43.37 43.50 43.77 43.96 44.32 45.04 45.44 45.71 45.89 46.30 44.22 43.99 44.98 46.47 46.97 47.29 47.69 48.23 48.55 48.68 48.73 48.68 48.55 48.37 48.05 47.74 47.69 47.78 47.96 48.14 48.19 48.01 47.74 47.60 47.51
32.51 33.00 33.46 33.69 33.92 33.41 32.82 33.18 33.59 33.68 33.36 32.88 33.84 34.39 34.66 34.83 38.17 39.71 39.61 38.35 39.23 39.99 40.81 41.50 41.90 42.00 42.10 42.41 42.26 41.34 40.83 42.10 42.61 42.70 42.61 42.92 43.50 43.91 44.32 44.72 45.17 45.48 45.75 46.07 44.31 44.44 45.53 46.34 46.66 47.06 47.47 47.83 48.01 48.23 48.32 48.41 48.41 48.23 47.87 47.47 47.24 47.33 47.56 47.74 47.87 47.60 47.29 47.02 47.02
32.13 32.66 33.23 33.46 33.34 32.75 32.51 32.92 33.23 33.68 33.77 33.34 33.74 33.89 33.95 33.95 36.73 38.32 37.87 34.35 35.19 36.60 38.43 40.58 41.69 42.16 42.48 42.82 42.21 41.16 40.48 41.04 41.99 42.16 42.07 42.34 42.97 43.46 43.96 44.41 44.86 45.26 45.62 45.89 45.03 45.21 45.71 45.93 46.29 46.88 47.29 47.51 47.65 47.83 47.96 48.05 48.19 48.19 47.92 47.51 47.24 47.20 47.33 47.47 47.51 47.33 47.15 46.79 46.61
31.72 32.34 33.03 33.18 32.61 32.16 32.25 33.16 33.20 33.46 33.68 33.64 33.34 33.12 32.86 32.69 34.60 36.04 35.46 31.62 32.11 34.66 37.94 40.41 41.11 41.79 42.34 42.60 42.36 41.18 40.41 41.51 41.68 41.86 42.03 42.30 42.57 43.06 43.60 44.05 44.50 44.95 45.39 45.66 45.44 45.30 45.39 45.21 46.20 46.70 47.06 47.33 47.38 47.56 47.60 47.60 47.83 47.92 47.87 47.56 47.29 47.15 47.29 47.33 47.29 47.20 46.97 46.75 46.48
31.45 31.99 32.47 32.44 31.76 31.60 31.87 32.76 32.51 32.37 32.28 32.28 32.28 31.96 31.76 32.07 34.15 35.81 35.41 31.54 31.06 34.48 38.53 39.85 40.17 40.91 41.67 41.96 41.32 40.73 40.55 41.23 41.50 41.72 41.85 42.03 42.34 42.69 43.14 43.59 44.18 44.76 45.35 45.62 45.26 45.17 44.94 44.58 45.53 46.30 46.79 47.11 47.11 47.15 47.11 47.02 47.38 47.65 47.74 47.65 47.29 47.20 47.11 47.29 47.20 47.06 46.88 46.61 46.43
31.32 31.78 32.18 31.89 30.64 31.13 31.93 31.78 31.78 31.60 31.20 30.36 30.67 30.86 31.06 31.82 34.28 35.67 35.49 33.49 30.85 32.94 36.68 39.08 39.98 40.80 41.39 41.38 40.96 40.80 40.90 41.05 41.22 41.44 41.66 41.89 42.20 42.47 43.00 43.50 44.13 44.81 45.39 45.53 45.26 44.94 44.63 44.50 44.72 45.48 46.34 46.75 46.75 46.66 46.52 46.39 46.93 47.33 47.56 47.60 47.29 47.15 47.02 47.02 47.02 46.93 46.88 46.57 46.43
31.31 31.94 32.34 31.78 30.59 30.87 31.71 32.17 31.37 30.57 29.87 29.35 29.88 30.29 30.88 31.85 33.87 34.36 34.08 33.80 31.82 31.44 33.37 38.21 39.66 40.61 41.06 41.20 41.23 40.99 40.78 40.88 40.97 41.09 41.40 41.71 42.02 42.47 42.96 43.50 44.27 44.90 45.39 45.57 45.31 44.90 44.41 43.96 44.09 44.85 45.67 46.07 46.25 46.25 46.16 46.03 46.48 46.84 47.11 47.42 47.24 47.02 46.84 46.79 46.84 46.84 46.84 46.61 46.39
31.12 31.39 31.61 31.85 31.13 30.46 30.64 32.24 31.38 30.08 29.17 29.39 29.35 29.38 29.96 31.66 33.37 33.41 32.78 32.73 32.87 31.58 31.37 34.54 36.99 39.11 40.56 41.06 41.11 41.06 40.83 40.74 40.33 40.45 40.94 41.53 41.89 42.24 42.74 43.46 44.22 44.81 45.39 45.62 45.04 44.68 44.28 43.78 43.64 44.36 45.08 45.40 45.53 45.67 45.71 45.85 45.94 46.16 46.52 46.97 47.06 46.93 46.75 46.61 46.61 46.61 46.57 46.57 46.34
30.36 30.26 30.44 31.17 30.03 29.84 30.40 31.82 31.11 30.23 29.52 29.25 28.42 28.28 29.17 31.30 33.18 32.83 31.98 32.03 32.19 31.12 30.09 30.68 34.11 37.03 39.25 40.56 40.88 40.91 40.44 39.55 39.32 39.64 40.35 41.12 41.62 42.11 42.69 43.55 44.18 44.81 45.26 45.48 44.51 44.07 43.93 43.93 43.75 44.15 44.69 44.91 44.95 45.04 45.08 45.31 45.35 45.44 45.76 46.39 46.66 46.70 46.61 46.48 46.34 46.30 46.25 46.25 46.12
29.52 29.28 29.28 29.60 29.89 29.52 29.51 30.82 30.61 30.12 29.27 27.98 27.00 27.08 28.45 31.17 33.14 33.28 32.76 32.74 31.14 29.99 29.42 29.55 31.72 34.20 36.48 38.26 40.38 40.90 39.89 37.45 37.92 38.60 39.54 40.62 41.39 42.15 42.92 43.77 44.18 44.49 44.85 45.35 44.68 44.07 43.54 43.31 43.49 43.94 44.38 44.56 44.59 44.63 44.60 44.56 44.55 44.63 44.95 45.53 45.98 46.21 46.25 46.25 46.03 45.85 45.89 45.94 45.94
30.15 29.29 28.66 28.52 30.10 30.67 30.84 31.25 30.31 29.04 27.62 26.25 25.93 26.54 28.26 31.16 33.01 33.70 33.71 33.38 31.96 30.23 29.30 30.14 29.91 30.94 33.12 36.30 39.33 40.59 39.90 37.18 37.14 38.20 39.55 40.32 41.21 42.02 42.87 43.77 44.00 44.23 44.59 45.03 45.12 44.50 43.47 42.35 42.62 43.43 44.10 44.14 44.23 44.32 44.29 44.30 44.24 44.37 44.46 44.86 45.18 45.40 45.63 45.76 45.72 45.54 45.40 45.49 45.54
30.53 29.46 29.15 31.01 30.93 31.58 31.93 30.77 29.08 27.58 26.44 26.11 26.18 27.02 28.68 31.44 32.94 33.52 33.44 33.03 32.58 31.28 30.45 31.30 30.43 30.54 32.32 36.12 38.16 39.75 40.15 38.66 37.97 38.30 38.98 39.15 41.04 42.21 42.88 43.55 43.82 43.96 44.28 45.00 45.41 45.05 44.20 43.25 43.19 43.37 43.63 43.86 43.96 44.01 44.02 44.06 44.01 44.10 44.11 44.16 44.33 44.55 44.68 44.91 45.09 45.04 45.00 44.91 45.05
29.73 29.72 30.55 32.26 31.08 30.99 30.90 29.35 27.66 26.83 26.58 26.44 26.66 27.87 29.80 32.09 32.88 33.01 32.82 32.58 32.65 32.55 32.37 32.30 30.53 30.41 32.11 35.82 37.94 39.44 39.80 38.66 37.25 37.85 39.03 39.48 41.13 42.03 42.57 43.28 43.60 43.80 44.13 44.86 45.26 45.43 45.12 44.27 43.67 43.11 42.82 42.92 43.56 43.70 43.70 43.74 43.66 43.63 43.55 43.59 43.58 43.66 43.66 43.84 44.15 44.24 44.24 44.37 44.47
28.91 29.77 31.04 31.69 30.57 30.14 29.51 28.00 27.01 26.81 26.75 26.44 27.15 28.84 30.77 32.32 32.61 32.47 32.19 32.32 32.58 32.67 32.43 31.47 29.77 30.77 32.99 34.96 38.26 39.70 39.61 38.52 37.02 37.89 39.43 39.64 40.91 41.67 42.17 42.75 43.22 43.51 43.89 44.57 45.04 45.13 44.96 44.39 43.82 43.26 42.72 42.51 42.83 43.07 43.12 43.20 43.30 43.23 43.23 43.31 43.22 43.00 42.77 42.55 42.86 43.17 43.45 43.62 43.84
29.48 30.04 30.56 30.70 29.92 29.40 28.69 27.27 26.85 26.84 26.89 26.71 27.72 29.33 30.95 32.26 32.50 32.18 31.81 32.17 32.10 31.62 30.79 29.59 29.96 32.42 34.50 33.49 36.58 38.70 39.55 38.74 37.92 37.70 38.15 39.05 40.36 41.17 41.81 42.52 43.17 43.47 43.81 44.39 44.70 44.65 44.52 44.18 43.74 43.34 42.81 42.03 41.93 42.07 42.31 42.32 42.63 42.77 42.81 42.76 42.80 42.62 42.32 41.96 42.05 42.28 42.51 42.78 43.12
30.71 30.45 29.99 29.72 29.33 28.98 28.27 26.90 27.07 27.29 27.38 27.29 28.05 29.55 31.13 32.26 32.71 32.43 31.93 31.79 31.06 30.42 29.68 28.75 30.59 31.51 31.87 31.80 35.74 37.82 38.09 36.46 36.98 37.62 38.07 37.93 40.09 40.99 41.44 42.11 43.06 43.51 43.86 44.22 44.26 44.18 44.01 43.79 43.57 43.22 42.72 41.87 40.93 41.01 41.37 41.60 41.75 41.80 41.85 41.87 42.04 42.03 41.99 41.81 41.81 41.86 41.92 41.92 42.24
31.32 30.70 29.96 29.78 29.60 29.01 28.13 27.38 27.78 27.74 27.56 27.30 28.06 29.74 31.57 32.85 33.24 32.87 32.24 31.44 30.78 30.46 30.18 29.25 30.61 30.44 30.36 32.30 34.88 37.32 38.00 35.37 34.97 36.54 38.58 39.53 40.33 40.72 41.12 41.96 42.93 43.51 43.77 44.00 43.96 43.83 43.66 43.49 43.27 43.00 42.64 41.96 41.08 40.61 40.55 40.69 40.83 40.93 40.98 41.02 41.21 41.32 41.40 41.44 41.48 41.49 41.49 41.50 41.51
31.69 31.38 31.13 31.13 30.82 29.87 28.84 28.44 28.06 27.53 27.12 27.44 28.54 30.23 32.10 33.64 33.81 33.35 32.67 31.96 30.85 30.45 29.99 28.72 29.53 30.08 30.64 31.12 31.99 35.74 38.82 38.03 34.85 33.07 33.66 37.52 39.42 40.27 40.85 42.02 42.84 43.24 43.41 43.61 43.66 43.53 43.31 43.14 42.92 42.65 42.29 41.54 40.56 40.01 39.90 40.15 40.27 40.30 40.29 40.30 40.46 40.57 40.64 40.78 40.82 40.91 41.04 41.17 41.17
32.06 32.25 32.37 32.44 31.99 31.13 30.10 28.91 27.83 27.36 27.43 27.96 29.17 30.90 32.60 34.08 34.17 33.72 32.91 31.96 31.96 32.78 32.42 28.84 28.83 29.15 29.29 28.94 31.31 34.95 38.14 39.24 37.98 36.19 34.78 34.70 38.34 39.83 40.59 42.03 42.75 43.06 43.15 43.18 43.27 43.22 43.01 42.79 42.53 42.25 41.76 41.10 40.16 39.54 39.26 39.55 39.58 39.55 39.49 39.62 39.71 39.79 39.92 39.97 40.15 40.33 40.51 40.86 40.86
32.63 32.95 33.29 33.37 32.91 32.05 30.70 28.77 28.20 28.00 28.10 28.24 29.88 31.53 33.00 33.91 33.77 33.15 32.51 32.42 33.90 34.71 33.73 29.96 29.60 29.33 29.11 29.08 30.52 33.33 36.37 38.52 38.42 37.46 36.30 35.73 37.70 38.78 39.77 41.49 42.25 42.66 42.85 42.92 43.01 42.88 42.70 42.44 42.18 41.85 41.36 40.81 39.66 38.87 38.62 38.91 38.82 38.74 38.76 38.89 39.07 39.15 39.28 39.30 39.50 39.80 40.11 40.46 40.54
33.12 33.60 33.95 34.13 33.58 32.44 30.80 28.88 29.09 28.69 28.53 29.09 30.70 32.03 33.01 33.28 32.61 31.94 31.80 32.60 33.28 33.00 32.06 30.72 30.36 30.00 29.87 30.00 30.59 31.95 34.31 37.64 37.37 37.98 38.23 36.47 36.99 38.13 39.52 40.74 41.86 42.39 42.67 42.75 42.66 42.44 42.31 42.05 41.78 41.32 40.82 40.26 38.83 37.99 37.78 38.20 38.21 38.20 38.21 38.30 38.44 38.66 38.78 38.84 39.01 39.14 39.46 40.00 40.29
33.49 34.13 34.51 34.61 34.23 32.95 31.26 29.60 29.85 29.55 29.36 29.96 31.08 32.13 32.76 32.88 32.43 32.21 32.33 33.00 31.88 31.17 30.77 30.77 30.77 30.33 29.88 29.36 29.83 31.35 33.69 36.84 36.08 35.85 35.21 33.43 34.40 36.41 38.44 39.69 41.29 42.36 42.81 42.63 42.41 42.14 41.96 41.73 41.20 40.66 40.07 39.43 38.00 37.08 36.81 37.29 37.41 37.51 37.51 37.67 37.90 38.10 38.13 38.23 38.39 38.58 38.90 39.48 39.85
33.73 34.38 34.86 34.90 34.44 33.42 32.02 30.45 30.43 30.36 30.48 30.87 31.39 31.74 32.14 32.58 32.76 32.97 33.46 34.40 32.75 31.20 30.16 30.55 30.70 30.93 31.02 30.97 29.47 30.36 31.89 32.34 31.42 32.28 32.77 30.91 32.07 34.48 37.21 39.11 40.76 42.14 42.84 42.58 42.19 41.88 41.56 41.20 40.71 40.01 39.29 38.51 37.06 36.46 36.25 36.45 36.56 36.53 36.62 36.83 37.10 37.32 37.46 37.52 37.65 37.92 38.33 38.99 39.48
34.01 34.74 35.15 34.98 34.50 33.65 32.53 31.36 31.11 31.22 31.53 31.87 31.81 31.80 31.84 32.16 32.51 33.03 33.93 35.36 33.21 31.39 30.15 30.06 29.81 30.08 30.47 30.43 29.24 30.43 31.16 28.19 28.35 29.06 29.91 30.87 31.37 33.45 36.07 38.48 39.95 41.51 42.49 42.54 42.07 41.75 41.39 40.94 40.32 39.71 38.90 37.70 36.25 35.73 35.80 36.07 35.89 35.73 35.73 35.87 36.16 36.60 36.99 37.00 37.14 37.48 37.93 38.46 39.02
34.11 34.96 35.38 35.05 34.53 33.86 33.13 32.37 32.12 32.27 32.48 32.60 32.37 32.23 32.08 32.26 32.16 32.55 33.39 34.97 32.62 31.12 30.30 29.67 29.55 29.73 29.77 29.35 28.66 28.66 28.34 26.48 27.64 29.02 30.68 32.89 32.63 33.55 35.36 37.76 38.90 40.60 41.96 42.38 42.07 41.72 41.26 40.77 40.12 39.46 38.38 36.64 34.89 34.64 35.12 35.70 35.51 35.29 35.12 35.11 35.39 35.93 36.43 36.74 36.88 37.17 37.49 37.97 38.87
34.19 35.11 35.60 35.26 34.65 34.13 33.69 33.37 33.37 33.46 33.49 33.25 32.71 32.30 32.19 32.18 32.43 32.68 33.53 35.29 33.03 31.72 30.90 30.04 30.14 30.05 29.69 28.89 28.31 27.30 26.56 26.93 29.08 29.87 30.00 30.64 30.97 32.28 34.23 36.54 37.81 39.76 41.48 42.28 42.03 41.68 41.28 40.78 40.16 39.41 38.17 36.14 34.13 33.71 34.23 34.94 34.55 34.36 34.41 34.58 34.85 35.09 35.56 36.19 36.45 36.63 36.90 37.44 38.89
34.15 35.10 35.71 35.48 34.90 34.45 34.13 34.12 34.38 34.53 34.32 33.68 33.01 32.33 31.90 32.14 32.70 33.41 34.36 35.44 33.51 32.64 32.30 31.72 31.40 30.82 30.18 29.74 29.41 28.07 27.00 27.59 30.00 30.76 30.18 28.61 29.93 32.53 34.87 35.44 36.50 38.58 40.75 42.10 41.99 41.72 41.37 40.91 40.41 39.61 38.49 36.50 34.54 33.50 33.08 32.89 32.19 32.32 32.79 33.64 33.86 34.06 34.32 34.46 35.02 35.40 35.81 36.29 38.62
33.99 34.98 35.60 35.52 35.08 34.79 34.51 34.62 34.96 35.14 34.93 34.28 33.43 32.65 32.26 32.57 33.53 34.20 34.50 33.97 32.77 32.80 33.15 32.82 32.19 31.89 31.96 32.54 29.55 27.92 27.23 27.21 28.10 29.57 30.75 30.46 32.25 35.12 36.52 33.51 34.19 36.00 38.59 41.22 41.94 41.90 41.58 41.22 40.50 39.61 38.27 35.82 35.28 34.09 32.66 31.49 31.15 31.53 32.21 32.74 33.02 33.08 32.96 32.67 33.39 34.36 35.01 35.09 36.80
33.86 34.72 35.39 35.46 35.12 34.97 34.94 34.96 35.22 35.20 34.98 34.60 33.84 33.34 33.24 33.84 33.90 33.75 33.06 31.77 31.60 32.18 32.84 32.92 32.58 32.96 33.36 33.45 30.23 28.90 28.79 28.85 28.88 29.52 30.39 30.91 31.73 33.57 34.08 30.56 30.30 31.44 34.15 38.60 41.55 42.16 41.76 41.48 40.81 39.92 38.46 35.82 35.94 34.93 33.35 31.55 31.44 31.69 32.06 32.71 33.04 32.84 32.47 32.08 31.90 33.05 34.38 34.88 34.95
MSLP
1014.27 1014.31 1014.27 1014.27 1014.23 1014.19 1014.19 1014.15 1014.15 1014.11 1014.11 1014.15 1014.15 1014.15 1014.15 1014.11 1014.07 1014.03 1013.95 1013.87 1013.87 1013.87 1013.83 1013.71 1013.67 1013.71 1013.75 1013.71 1013.67 1013.55 1013.47 1013.35 1013.27 1013.23 1013.15 1013.07 1012.99 1012.87 1012.83 1012.71 1012.63 1012.55 1012.55 1012.47 1012.43 1012.39 1012.27 1012.11 1011.99 1011.79 1011.59 1011.43 1011.27 1011.15 1010.99 1010.95 1010.91 1010.79 1010.63 1010.51 1010.39 1010.27 1010.19 1010.03 1009.87 1009.71 1009.59 1009.43 1009.27
1014.27 1014.27 1014.27 1014.15 1014.15 1014.15 1014.15 1014.15 1014.11 1014.07 1014.11 1014.11 1014.11 1014.11 1014.11 1014.11 1013.99 1013.95 1013.95 1013.95 1013.87 1013.87 1013.83 1013.71 1013.71 1013.75 1013.75 1013.71 1013.67 1013.55 1013.51 1013.39 1013.27 1013.23 1013.15 1013.11 1012.99 1012.91 1012.83 1012.75 1012.67 1012.59 1012.55 1012.55 1012.47 1012.43 1012.35 1012.19 1012.03 1011.87 1011.67 1011.47 1011.31 1011.15 1011.03 1010.95 1010.87 1010.79 1010.71 1010.55 1010.47 1010.35 1010.23 1010.07 1009.95 1009.79 1009.63 1009.43 1009.27
1014.27 1014.27 1014.23 1014.19 1014.19 1014.15 1014.15 1014.15 1014.15 1014.15 1014.15 1014.15 1014.11 1014.11 1014.11 1014.07 1014.03 1013.99 1013.95 1013.95 1013.87 1013.83 1013.79 1013.75 1013.71 1013.79 1013.83 1013.75 1013.71 1013.55 1013.47 1013.43 1013.31 1013.27 1013.19 1013.15 1013.03 1012.91 1012.83 1012.79 1012.71 1012.63 1012.55 1012.55 1012.55 1012.47 1012.43 1012.27 1012.11 1011.95 1011.75 1011.55 1011.43 1011.27 1011.11 1010.99 1010.87 1010.83 1010.75 1010.63 1010.55 1010.43 1010.31 1010.15 1009.99 1009.87 1009.71 1009.51 1009.35
1014.27 1014.27 1014.27 1014.23 1014.19 1014.19 1014.15 1014.03 1014.07 1014.11 1014.11 1014.11 1014.15 1014.11 1014.11 1014.07 1014.03 1013.99 1013.95 1013.91 1013.87 1013.83 1013.83 1013.83 1013.83 1013.87 1013.87 1013.83 1013.71 1013.59 1013.47 1013.39 1013.31 1013.27 1013.19 1013.15 1013.07 1012.99 1012.87 1012.79 1012.75 1012.71 1012.59 1012.59 1012.55 1012.47 1012.43 1012.31 1012.15 1012.03 1011.87 1011.71 1011.55 1011.35 1011.23 1011.11 1010.99 1010.87 1010.79 1010.71 1010.59 1010.55 1010.43 1010.27 1010.11 1009.95 1009.79 1009.63 1009.43
1014.23 1014.19 1014.19 1014.15 1014.15 1014.11 1014.03 1013.99 1013.99 1014.03 1014.07 1014.07 1014.07 1014.07 1014.07 1014.03 1013.99 1013.99 1013.99 1013.87 1013.87 1013.83 1013.83 1013.87 1013.87 1013.87 1013.91 1013.87 1013.71 1013.55 1013.47 1013.43 1013.35 1013.27 1013.23 1013.15 1013.07 1012.99 1012.91 1012.83 1012.79 1012.71 1012.67 1012.63 1012.55 1012.51 1012.43 1012.35 1012.19 1012.07 1011.95 1011.83 1011.63 1011.47 1011.43 1011.31 1011.15 1010.99 1010.83 1010.71 1010.67 1010.63 1010.51 1010.39 1010.19 1009.99 1009.87 1009.71 1009.55
1014.15 1014.15 1014.15 1014.15 1014.15 1014.11 1014.07 1014.03 1014.03 1013.99 1013.99 1013.99 1014.03 1014.03 1014.03 1013.99 1013.99 1013.95 1013.91 1013.87 1013.87 1013.87 1013.83 1013.83 1013.83 1013.87 1013.87 1013.83 1013.71 1013.55 1013.47 1013.47 1013.43 1013.35 1013.27 1013.19 1013.15 1013.03 1012.95 1012.87 1012.83 1012.75 1012.71 1012.67 1012.59 1012.55 1012.47 1012.39 1012.27 1012.15 1011.99 1011.87 1011.71 1011.59 1011.51 1011.43 1011.27 1011.11 1010.91 1010.79 1010.71 1010.63 1010.55 1010.47 1010.31 1010.15 1009.95 1009.79 1009.59
1014.15 1014.15 1014.15 1014.15 1014.15 1014.11 1014.11 1014.07 1014.03 1013.99 1013.99 1013.99 1013.99 1013.99 1014.03 1013.99 1013.99 1013.95 1013.95 1013.91 1013.91 1013.87 1013.87 1013.87 1013.87 1013.87 1013.87 1013.75 1013.71 1013.59 1013.51 1013.43 1013.39 1013.35 1013.31 1013.27 1013.15 1013.07 1012.99 1012.95 1012.83 1012.79 1012.75 1012.71 1012.67 1012.55 1012.47 1012.39 1012.27 1012.19 1012.03 1011.91 1011.79 1011.71 1011.59 1011.51 1011.39 1011.23 1011.03 1010.91 1010.75 1010.67 1010.59 1010.55 1010.43 1010.23 1010.03 1009.87 1009.71
1014.15 1014.15 1014.15 1014.15 1014.15 1014.11 1014.11 1014.07 1013.99 1013.99 1013.95 1013.95 1013.95 1013.99 1013.99 1013.99 1013.99 1013.95 1013.91 1013.91 1013.91 1013.91 1013.91 1013.95 1013.99 1013.91 1013.83 1013.71 1013.63 1013.59 1013.55 1013.47 1013.43 1013.35 1013.31 1013.27 1013.19 1013.11 1013.03 1012.99 1012.91 1012.83 1012.79 1012.75 1012.71 1012.63 1012.55 1012.43 1012.35 1012.27 1012.15 1011.99 1011.87 1011.79 1011.71 1011.59 1011.47 1011.35 1011.19 1011.03 1010.91 1010.75 1010.67 1010.63 1010.51 1010.31 1010.15 1009.95 1009.75
1014.15 1014.15 1014.15 1014.11 1014.11 1014.07 1014.03 1013.99 1013.99 1013.95 1013.95 1013.95 1013.91 1013.87 1013.87 1013.87 1013.91 1013.91 1013.87 1013.91 1013.91 1013.91 1013.91 1013.99 1013.95 1013.87 1013.79 1013.71 1013.63 1013.55 1013.51 1013.47 1013.43 1013.43 1013.31 1013.27 1013.23 1013.15 1013.11 1012.99 1012.95 1012.91 1012.83 1012.79 1012.71 1012.67 1012.55 1012.47 1012.39 1012.31 1012.23 1012.11 1011.99 1011.87 1011.79 1011.67 1011.55 1011.47 1011.35 1011.19 1011.07 1010.91 1010.83 1010.71 1010.63 1010.43 1010.27 1010.07 1009.87
1014.07 1014.11 1014.11 1014.11 1014.07 1014.03 1014.03 1013.99 1013.99 1013.95 1013.91 1013.91 1013.87 1013.87 1013.79 1013.83 1013.83 1013.87 1013.87 1013.87 1013.87 1013.95 1013.95 1013.91 1013.87 1013.87 1013.79 1013.67 1013.63 1013.59 1013.55 1013.47 1013.47 1013.43 1013.35 1013.27 1013.27 1013.19 1013.11 1013.03 1012.99 1012.99 1012.95 1012.87 1012.79 1012.71 1012.59 1012.51 1012.43 1012.35 1012.27 1012.15 1012.03 1011.95 1011.87 1011.75 1011.67 1011.59 1011.47 1011.35 1011.19 1011.03 1010.91 1010.79 1010.71 1010.55 1010.39 1010.23 1010.03
1013.99 1014.03 1014.03 1014.03 1014.03 1014.03 1013.99 1013.99 1013.95 1013.91 1013.87 1013.87 1013.87 1013.83 1013.79 1013.79 1013.79 1013.83 1013.87 1013.87 1013.91 1013.91 1013.91 1013.87 1013.83 1013.79 1013.75 1013.71 1013.67 1013.59 1013.55 1013.51 1013.43 1013.39 1013.35 1013.31 1013.27 1013.19 1013.15 1013.07 1012.99 1012.99 1012.99 1012.95 1012.83 1012.71 1012.63 1012.55 1012.51 1012.43 1012.27 1012.19 1012.15 1012.03 1011.95 1011.83 1011.75 1011.71 1011.59 1011.51 1011.35 1011.19 1010.99 1010.91 1010.79 1010.67 1010.51 1010.35 1010.15
1013.95 1013.99 1013.99 1013.99 1013.99 1013.99 1013.99 1013.99 1013.95 1013.91 1013.87 1013.87 1013.83 1013.79 1013.79 1013.79 1013.79 1013.83 1013.87 1013.91 1013.91 1013.87 1013.87 1013.87 1013.83 1013.79 1013.75 1013.75 1013.71 1013.59 1013.51 1013.47 1013.43 1013.43 1013.35 1013.27 1013.23 1013.15 1013.11 1013.07 1013.03 1013.03 1012.99 1012.95 1012.91 1012.83 1012.71 1012.63 1012.55 1012.43 1012.35 1012.27 1012.19 1012.15 1012.03 1011.91 1011.83 1011.75 1011.67 1011.59 1011.43 1011.27 1011.15 1011.03 1010.91 1010.83 1010.71 1010.51 1010.27
1013.91 1013.91 1013.95 1013.99 1013.99 1013.99 1013.99 1013.99 1013.95 1013.91 1013.87 1013.87 1013.83 1013.83 1013.83 1013.83 1013.83 1013.83 1013.83 1013.87 1013.83 1013.87 1013.83 1013.79 1013.79 1013.75 1013.71 1013.71 1013.63 1013.59 1013.55 1013.47 1013.43 1013.43 1013.35 1013.31 1013.27 1013.19 1013.15 1013.11 1013.07 1013.07 1013.03 1012.99 1012.99 1012.91 1012.79 1012.71 1012.59 1012.51 1012.43 1012.35 1012.27 1012.19 1012.11 1011.99 1011.91 1011.87 1011.75 1011.71 1011.55 1011.43 1011.27 1011.15 1011.07 1010.99 1010.83 1010.59 1010.43
1013.87 1013.87 1013.91 1013.91 1013.95 1013.99 1013.99 1013.99 1013.91 1013.91 1013.87 1013.87 1013.83 1013.79 1013.83 1013.83 1013.83 1013.79 1013.79 1013.79 1013.83 1013.87 1013.87 1013.79 1013.79 1013.75 1013.71 1013.67 1013.59 1013.59 1013.59 1013.55 1013.47 1013.43 1013.39 1013.31 1013.27 1013.23 1013.19 1013.15 1013.11 1013.07 1013.03 1012.99 1012.99 1012.95 1012.83 1012.75 1012.67 1012.59 1012.51 1012.43 1012.35 1012.27 1012.19 1012.11 1011.99 1011.95 1011.87 1011.83 1011.71 1011.55 1011.43 1011.31 1011.19 1011.07 1010.91 1010.71 1010.55
1013.87 1013.87 1013.87 1013.87 1013.91 1013.99 1013.99 1013.91 1013.91 1013.87 1013.87 1013.83 1013.75 1013.79 1013.87 1013.87 1013.87 1013.87 1013.87 1013.91 1013.91 1013.91 1013.91 1013.87 1013.75 1013.71 1013.67 1013.63 1013.63 1013.63 1013.59 1013.55 1013.51 1013.43 1013.43 1013.39 1013.35 1013.27 1013.23 1013.19 1013.15 1013.07 1013.07 1013.03 1012.99 1012.95 1012.87 1012.83 1012.71 1012.67 1012.59 1012.55 1012.43 1012.35 1012.27 1012.19 1012.11 1012.03 1011.99 1011.95 1011.87 1011.71 1011.63 1011.51 1011.31 1011.19 1011.03 1010.91 1010.71
1013.79 1013.79 1013.83 1013.87 1013.87 1013.91 1013.87 1013.87 1013.87 1013.87 1013.83 1013.79 1013.79 1013.83 1013.87 1013.87 1013.91 1013.91 1013.95 1013.99 1013.99 1013.95 1013.87 1013.87 1013.79 1013.71 1013.67 1013.67 1013.67 1013.67 1013.71 1013.63 1013.55 1013.55 1013.51 1013.43 1013.39 1013.35 1013.27 1013.27 1013.15 1013.11 1013.07 1013.03 1012.99 1012.99 1012.95 1012.87 1012.83 1012.71 1012.67 1012.59 1012.55 1012.43 1012.35 1012.27 1012.23 1012.15 1012.07 1012.03 1011.99 1011.91 1011.79 1011.67 1011.51 1011.35 1011.23 1011.07 1010.87
1013.71 1013.71 1013.75 1013.79 1013.83 1013.83 1013.83 1013.79 1013.83 1013.83 1013.83 1013.79 1013.79 1013.83 1013.87 1013.87 1013.91 1013.91 1013.91 1013.95 1013.99 1013.95 1013.87 1013.87 1013.83 1013.75 1013.71 1013.71 1013.71 1013.71 1013.71 1013.71 1013.63 1013.59 1013.55 1013.47 1013.43 1013.43 1013.35 1013.27 1013.23 1013.15 1013.11 1013.03 1013.03 1012.99 1012.99 1012.91 1012.83 1012.79 1012.71 1012.67 1012.59 1012.51 1012.43 1012.39 1012.27 1012.23 1012.19 1012.15 1012.11 1012.03 1011.95 1011.83 1011.67 1011.55 1011.43 1011.23 1011.11
1013.63 1013.67 1013.71 1013.71 1013.71 1013.71 1013.71 1013.71 1013.75 1013.75 1013.75 1013.75 1013.75 1013.79 1013.87 1013.87 1013.87 1013.87 1013.87 1013.91 1013.99 1013.99 1013.95 1013.87 1013.83 1013.75 1013.75 1013.71 1013.75 1013.75 1013.75 1013.71 1013.67 1013.63 1013.55 1013.51 1013.47 1013.43 1013.39 1013.27 1013.23 1013.19 1013.15 1013.11 1013.11 1013.07 1013.03 1012.99 1012.91 1012.83 1012.79 1012.71 1012.67 1012.55 1012.51 1012.43 1012.39 1012.35 1012.27 1012.23 1012.19 1012.15 1012.07 1011.95 1011.83 1011.71 1011.55 1011.43 1011.27
1013.51 1013.55 1013.59 1013.63 1013.63 1013.59 1013.59 1013.63 1013.63 1013.67 1013.71 1013.71 1013.71 1013.75 1013.83 1013.83 1013.83 1013.87 1013.87 1013.91 1013.99 1013.99 1013.99 1013.91 1013.87 1013.79 1013.79 1013.75 1013.75 1013.75 1013.75 1013.71 1013.71 1013.63 1013.59 1013.55 1013.47 1013.43 1013.35 1013.27 1013.23 1013.15 1013.15 1013.11 1013.11 1013.11 1013.07 1012.99 1012.95 1012.87 1012.83 1012.79 1012.71 1012.63 1012.55 1012.51 1012.43 1012.43 1012.35 1012.31 1012.27 1012.27 1012.19 1012.11 1011.99 1011.87 1011.71 1011.59 1011.51
1013.39 1013.43 1013.43 1013.43 1013.47 1013.51 1013.51 1013.47 1013.51 1013.55 1013.63 1013.71 1013.71 1013.75 1013.79 1013.79 1013.79 1013.83 1013.87 1013.91 1013.99 1014.03 1014.03 1013.99 1013.95 1013.87 1013.87 1013.79 1013.79 1013.75 1013.75 1013.75 1013.71 1013.71 1013.63 1013.55 1013.51 1013.43 1013.39 1013.27 1013.23 1013.15 1013.11 1013.11 1013.11 1013.11 1013.07 1013.03 1012.99 1012.95 1012.87 1012.83 1012.79 1012.71 1012.67 1012.59 1012.55 1012.51 1012.47 1012.43 1012.39 1012.35 1012.31 1012.23 1012.15 1011.99 1011.91 1011.79 1011.67
1013.27 1013.27 1013.27 1013.27 1013.35 1013.39 1013.43 1013.43 1013.43 1013.51 1013.59 1013.67 1013.71 1013.71 1013.71 1013.75 1013.75 1013.79 1013.87 1013.91 1013.99 1014.07 1014.11 1014.07 1014.03 1013.95 1013.87 1013.83 1013.83 1013.79 1013.83 1013.83 1013.79 1013.75 1013.71 1013.59 1013.55 1013.43 1013.39 1013.27 1013.23 1013.15 1013.11 1013.11 1013.15 1013.15 1013.15 1013.07 1013.03 1012.99 1012.99 1012.91 1012.83 1012.83 1012.75 1012.71 1012.71 1012.63 1012.59 1012.55 1012.47 1012.43 1012.43 1012.35 1012.27 1012.15 1012.07 1011.95 1011.87
1013.07 1013.07 1013.15 1013.19 1013.27 1013.31 1013.35 1013.39 1013.43 1013.51 1013.55 1013.63 1013.67 1013.71 1013.71 1013.71 1013.71 1013.75 1013.83 1013.91 1013.99 1014.07 1014.11 1014.07 1014.07 1013.99 1013.95 1013.87 1013.83 1013.83 1013.87 1013.87 1013.79 1013.75 1013.71 1013.59 1013.55 1013.43 1013.35 1013.27 1013.19 1013.11 1013.07 1013.07 1013.11 1013.15 1013.15 1013.15 1013.11 1013.07 1013.03 1012.99 1012.95 1012.91 1012.83 1012.83 1012.79 1012.75 1012.71 1012.71 1012.59 1012.55 1012.51 1012.47 1012.39 1012.31 1012.23 1012.11 1011.99
1012.83 1012.95 1013.07 1013.15 1013.19 1013.23 1013.27 1013.35 1013.43 1013.51 1013.55 1013.59 1013.63 1013.63 1013.63 1013.67 1013.71 1013.75 1013.83 1013.87 1013.99 1014.03 1014.07 1014.07 1014.07 1014.03 1013.99 1013.95 1013.87 1013.83 1013.83 1013.87 1013.83 1013.75 1013.67 1013.59 1013.51 1013.43 1013.35 1013.27 1013.15 1013.11 1013.03 1013.03 1013.03 1013.11 1013.15 1013.19 1013.15 1013.15 1013.11 1013.07 1013.03 1012.99 1012.99 1012.95 1012.91 1012.87 1012.83 1012.79 1012.71 1012.67 1012.63 1012.55 1012.51 1012.43 1012.35 1012.27 1012.15
1012.71 1012.83 1012.95 1013.03 1013.15 1013.19 1013.27 1013.35 1013.43 1013.47 1013.51 1013.55 1013.55 1013.55 1013.59 1013.63 1013.71 1013.75 1013.83 1013.87 1013.91 1013.99 1014.03 1014.03 1014.07 1014.11 1014.07 1013.95 1013.87 1013.79 1013.79 1013.87 1013.83 1013.75 1013.71 1013.63 1013.51 1013.43 1013.35 1013.27 1013.19 1013.11 1013.03 1012.99 1012.99 1013.07 1013.15 1013.23 1013.23 1013.19 1013.15 1013.15 1013.15 1013.11 1013.07 1013.07 1013.03 1012.99 1012.95 1012.87 1012.83 1012.75 1012.71 1012.67 1012.63 1012.55 1012.47 1012.43 1012.35
1012.67 1012.75 1012.83 1012.95 1013.07 1013.15 1013.23 1013.31 1013.39 1013.43 1013.43 1013.43 1013.47 1013.51 1013.55 1013.55 1013.67 1013.75 1013.83 1013.87 1013.91 1013.99 1013.99 1014.03 1014.07 1014.11 1014.07 1013.95 1013.87 1013.83 1013.83 1013.87 1013.87 1013.79 1013.71 1013.59 1013.51 1013.43 1013.35 1013.27 1013.19 1013.11 1013.03 1012.95 1012.87 1012.91 1013.03 1013.15 1013.23 1013.27 1013.23 1013.19 1013.19 1013.15 1013.15 1013.15 1013.11 1013.07 1013.03 1012.99 1012.95 1012.87 1012.83 1012.79 1012.71 1012.67 1012.59 1012.55 1012.47
1012.63 1012.71 1012.79 1012.83 1012.99 1013.11 1013.19 1013.23 1013.27 1013.27 1013.31 1013.35 1013.43 1013.47 1013.47 1013.55 1013.63 1013.71 1013.79 1013.87 1013.87 1013.95 1013.99 1014.03 1014.07 1014.11 1014.03 1013.99 1013.87 1013.83 1013.87 1013.87 1013.87 1013.79 1013.71 1013.63 1013.51 1013.43 1013.39 1013.31 1013.23 1013.15 1013.03 1012.99 1012.91 1012.95 1012.99 1013.11 1013.15 1013.27 1013.27 1013.27 1013.27 1013.23 1013.23 1013.19 1013.19 1013.15 1013.15 1013.11 1013.07 1012.99 1012.99 1012.91 1012.83 1012.79 1012.71 1012.67 1012.63
1012.55 1012.63 1012.71 1012.75 1012.91 1012.99 1013.11 1013.15 1013.19 1013.23 1013.23 1013.27 1013.35 1013.43 1013.43 1013.51 1013.59 1013.71 1013.75 1013.83 1013.87 1013.95 1013.99 1014.07 1014.07 1014.03 1013.99 1013.99 1013.91 1013.87 1013.87 1013.87 1013.87 1013.79 1013.71 1013.67 1013.55 1013.47 1013.39 1013.31 1013.27 1013.19 1013.15 1013.03 1013.03 1013.03 1013.07 1013.15 1013.15 1013.27 1013.31 1013.39 1013.35 1013.31 1013.31 1013.27 1013.31 1013.27 1013.23 1013.19 1013.19 1013.15 1013.11 1013.03 1012.99 1012.95 1012.87 1012.79 1012.71
1012.35 1012.43 1012.55 1012.71 1012.83 1012.95 1012.99 1013.07 1013.15 1013.15 1013.15 1013.23 1013.27 1013.31 1013.43 1013.47 1013.55 1013.59 1013.71 1013.79 1013.87 1013.95 1014.03 1014.07 1014.03 1014.03 1014.03 1013.99 1013.95 1013.91 1013.87 1013.95 1013.87 1013.79 1013.71 1013.67 1013.55 1013.51 1013.43 1013.35 1013.27 1013.23 1013.15 1013.15 1013.15 1013.15 1013.15 1013.19 1013.19 1013.27 1013.35 1013.43 1013.43 1013.43 1013.43 1013.43 1013.43 1013.39 1013.35 1013.35 1013.31 1013.27 1013.27 1013.23 1013.15 1013.11 1013.03 1012.99 1012.87
1012.07 1012.23 1012.43 1012.55 1012.67 1012.75 1012.87 1012.99 1013.03 1013.07 1013.07 1013.15 1013.23 1013.27 1013.35 1013.43 1013.47 1013.55 1013.63 1013.75 1013.87 1013.95 1013.99 1013.99 1014.03 1014.03 1014.03 1013.99 1013.95 1013.91 1013.87 1013.95 1013.91 1013.87 1013.75 1013.67 1013.55 1013.51 1013.43 1013.43 1013.35 1013.27 1013.23 1013.23 1013.23 1013.23 1013.23 1013.27 1013.27 1013.31 1013.35 1013.43 1013.51 1013.55 1013.55 1013.55 1013.51 1013.51 1013.47 1013.43 1013.43 1013.43 1013.39 1013.35 1013.31 1013.27 1013.19 1013.15 1013.03
1011.87 1012.03 1012.19 1012.35 1012.43 1012.59 1012.71 1012.83 1012.87 1012.99 1013.07 1013.15 1013.19 1013.27 1013.27 1013.35 1013.43 1013.51 1013.59 1013.71 1013.83 1013.87 1013.87 1013.95 1013.99 1013.99 1014.03 1014.07 1014.03 1013.99 1013.91 1013.95 1013.95 1013.95 1013.87 1013.71 1013.59 1013.55 1013.51 1013.43 1013.39 1013.35 1013.31 1013.27 1013.27 1013.27 1013.31 1013.31 1013.35 1013.39 1013.43 1013.55 1013.59 1013.59 1013.59 1013.63 1013.59 1013.59 1013.59 1013.55 1013.55 1013.55 1013.55 1013.51 1013.43 1013.43 1013.35 1013.27 1013.15
1011.67 1011.83 1011.99 1012.11 1012.27 1012.43 1012.51 1012.59 1012.75 1012.91 1013.03 1013.11 1013.15 1013.19 1013.23 1013.31 1013.39 1013.43 1013.55 1013.63 1013.71 1013.71 1013.79 1013.91 1013.95 1013.99 1014.03 1014.11 1014.07 1013.99 1013.87 1013.87 1013.87 1013.87 1013.87 1013.83 1013.67 1013.59 1013.55 1013.47 1013.43 1013.39 1013.39 1013.35 1013.35 1013.35 1013.39 1013.39 1013.43 1013.47 1013.55 1013.63 1013.71 1013.71 1013.71 1013.71 1013.71 1013.71 1013.71 1013.71 1013.71 1013.71 1013.67 1013.59 1013.55 1013.55 1013.47 1013.39 1013.27
1011.47 1011.59 1011.75 1011.91 1012.07 1012.19 1012.35 1012.47 1012.67 1012.83 1012.95 1013.03 1013.11 1013.15 1013.15 1013.23 1013.27 1013.35 1013.43 1013.55 1013.59 1013.71 1013.79 1013.91 1013.95 1013.99 1014.03 1014.11 1014.07 1013.99 1013.91 1013.87 1013.87 1013.87 1013.87 1013.83 1013.71 1013.63 1013.55 1013.51 1013.43 1013.43 1013.43 1013.43 1013.43 1013.43 1013.43 1013.47 1013.55 1013.55 1013.63 1013.71 1013.75 1013.79 1013.79 1013.79 1013.79 1013.83 1013.83 1013.83 1013.79 1013.79 1013.75 1013.71 1013.71 1013.71 1013.59 1013.51 1013.43
1011.27 1011.43 1011.55 1011.71 1011.87 1011.99 1012.19 1012.39 1012.55 1012.71 1012.83 1012.91 1012.99 1013.03 1013.11 1013.15 1013.23 1013.31 1013.43 1013.51 1013.59 1013.71 1013.83 1013.87 1013.95 1013.99 1014.03 1014.11 1014.07 1013.99 1013.95 1013.87 1013.87 1013.83 1013.83 1013.79 1013.75 1013.71 1013.59 1013.55 1013.47 1013.43 1013.43 1013.43 1013.47 1013.51 1013.51 1013.55 1013.63 1013.67 1013.71 1013.83 1013.87 1013.91 1013.91 1013.87 1013.87 1013.91 1013.91 1013.91 1013.91 1013.87 1013.87 1013.87 1013.87 1013.83 1013.71 1013.63 1013.55
1011.11 1011.23 1011.35 1011.51 1011.67 1011.87 1012.03 1012.27 1012.43 1012.59 1012.71 1012.83 1012.91 1012.95 1012.99 1013.07 1013.19 1013.35 1013.43 1013.55 1013.63 1013.71 1013.75 1013.83 1013.87 1013.91 1013.99 1014.03 1014.03 1013.99 1013.99 1013.91 1013.91 1013.87 1013.87 1013.87 1013.83 1013.71 1013.63 1013.55 1013.55 1013.43 1013.43 1013.47 1013.55 1013.55 1013.59 1013.63 1013.71 1013.75 1013.83 1013.87 1013.99 1013.99 1013.99 1013.99 1013.99 1014.03 1013.99 1013.99 1014.03 1013.99 1013.99 1013.99 1013.99 1013.95 1013.87 1013.79 1013.71
1010.87 1010.99 1011.15 1011.27 1011.47 1011.67 1011.87 1012.11 1012.27 1012.43 1012.55 1012.71 1012.79 1012.83 1012.91 1012.99 1013.15 1013.23 1013.35 1013.43 1013.55 1013.67 1013.79 1013.87 1013.91 1013.95 1013.99 1014.03 1014.07 1014.03 1014.03 1014.03 1014.07 1013.99 1013.99 1013.95 1013.91 1013.83 1013.71 1013.63 1013.55 1013.47 1013.43 1013.51 1013.55 1013.63 1013.71 1013.71 1013.79 1013.87 1013.91 1013.99 1014.07 1014.11 1014.11 1014.11 1014.11 1014.11 1014.15 1014.15 1014.15 1014.15 1014.15 1014.15 1014.11 1014.07 1013.99 1013.91 1013.79
1010.59 1010.71 1010.87 1011.11 1011.27 1011.51 1011.71 1011.91 1012.11 1012.27 1012.43 1012.51 1012.63 1012.75 1012.83 1012.91 1012.99 1013.11 1013.19 1013.31 1013.51 1013.67 1013.83 1013.91 1013.99 1014.03 1014.07 1014.11 1014.11 1014.03 1014.03 1014.11 1014.15 1014.11 1014.03 1013.99 1013.99 1013.87 1013.79 1013.71 1013.63 1013.55 1013.51 1013.55 1013.59 1013.67 1013.71 1013.79 1013.87 1013.87 1013.95 1014.03 1014.15 1014.19 1014.15 1014.15 1014.15 1014.19 1014.23 1014.23 1014.23 1014.23 1014.23 1014.23 1014.23 1014.19 1014.11 1013.99 1013.87
1010.31 1010.43 1010.63 1010.83 1011.11 1011.27 1011.51 1011.71 1011.91 1012.07 1012.23 1012.31 1012.43 1012.55 1012.71 1012.83 1012.91 1013.03 1013.15 1013.27 1013.43 1013.63 1013.79 1013.87 1013.99 1014.03 1014.07 1014.07 1014.11 1014.15 1014.15 1014.19 1014.15 1014.11 1014.07 1014.03 1013.99 1013.99 1013.87 1013.79 1013.71 1013.67 1013.55 1013.55 1013.63 1013.71 1013.75 1013.83 1013.87 1013.91 1013.99 1014.11 1014.15 1014.19 1014.15 1014.15 1014.19 1014.27 1014.27 1014.27 1014.27 1014.31 1014.31 1014.31 1014.27 1014.27 1014.15 1014.07 1013.91
1010.15 1010.23 1010.39 1010.59 1010.83 1011.07 1011.27 1011.47 1011.67 1011.83 1011.95 1012.07 1012.23 1012.35 1012.51 1012.67 1012.83 1012.99 1013.11 1013.15 1013.35 1013.55 1013.71 1013.83 1013.91 1013.99 1013.99 1013.99 1014.11 1014.19 1014.27 1014.27 1014.19 1014.15 1014.11 1014.15 1014.11 1014.07 1013.99 1013.87 1013.79 1013.71 1013.67 1013.63 1013.67 1013.71 1013.75 1013.83 1013.87 1013.99 1014.03 1014.15 1014.19 1014.19 1014.19 1014.15 1014.23 1014.27 1014.27 1014.31 1014.35 1014.35 1014.35 1014.39 1014.35 1014.31 1014.27 1014.15 1013.99
1009.99 1010.03 1010.15 1010.35 1010.59 1010.83 1011.07 1011.27 1011.39 1011.51 1011.67 1011.87 1012.03 1012.23 1012.39 1012.55 1012.67 1012.83 1012.95 1013.03 1013.19 1013.35 1013.55 1013.71 1013.79 1013.87 1013.91 1013.99 1014.11 1014.23 1014.27 1014.27 1014.23 1014.15 1014.15 1014.19 1014.19 1014.11 1014.03 1013.99 1013.91 1013.87 1013.75 1013.71 1013.71 1013.71 1013.75 1013.83 1013.87 1013.99 1014.07 1014.15 1014.15 1014.23 1014.23 1014.27 1014.27 1014.31 1014.31 1014.35 1014.39 1014.39 1014.43 1014.43 1014.43 1014.35 1014.31 1014.23 1014.03
1009.79 1009.91 1009.99 1010.15 1010.35 1010.55 1010.79 1010.99 1011.11 1011.27 1011.43 1011.67 1011.87 1012.07 1012.23 1012.39 1012.51 1012.67 1012.83 1012.99 1013.11 1013.27 1013.39 1013.55 1013.67 1013.79 1013.87 1013.99 1014.11 1014.23 1014.27 1014.31 1014.31 1014.27 1014.19 1014.19 1014.15 1014.11 1014.07 1014.15 1014.07 1013.99 1013.87 1013.75 1013.71 1013.71 1013.75 1013.83 1013.91 1013.99 1014.07 1014.15 1014.19 1014.23 1014.27 1014.31 1014.35 1014.35 1014.35 1014.39 1014.43 1014.43 1014.43 1014.43 1014.43 1014.39 1014.31 1014.27 1014.15
1009.63 1009.75 1009.87 1009.99 1010.15 1010.31 1010.55 1010.71 1010.87 1011.07 1011.27 1011.47 1011.67 1011.87 1012.03 1012.15 1012.39 1012.55 1012.75 1012.99 1013.11 1013.23 1013.31 1013.47 1013.59 1013.75 1013.87 1013.99 1014.07 1014.15 1014.27 1014.31 1014.35 1014.31 1014.27 1014.27 1014.23 1014.19 1014.19 1014.23 1014.19 1014.15 1013.99 1013.87 1013.71 1013.71 1013.75 1013.79 1013.87 1013.99 1014.11 1014.19 1014.19 1014.23 1014.27 1014.35 1014.35 1014.35 1014.43 1014.43 1014.43 1014.43 1014.43 1014.43 1014.43 1014.39 1014.31 1014.27 1014.19
Wind_Speed
2 2 2 2 2 2 2 2 2 2 2 2 2 2 2 2 2 2 2 1 1 1 1 2 1 2 2 4 4 4 4 4 4 5 5 5 5 5 5 5 5 5 6 6 7 7 7 7 6 5 4 4 5 4 3 3 4 6 6 6 5 6 6 7 7 8 9 9 7
2 2 3 3 2 2 2 2 1 1 1 1 1 1 2 2 2 2 2 1 1 1 1 2 2 3 3 4 4 4 4 4 4 5 5 5 4 5 5 5 5 5 5 6 6 6 6 7 6 5 4 4 5 4 4 4 4 5 6 7 6 5 6 6 7 8 8 8 8
2 2 2 2 2 2 2 1 1 1 1 1 1 1 1 1 1 1 1 1 1 1 1 1 2 2 3 4 4 4 4 4 4 4 4 4 4 4 5 4 5 5 5 5 5 5 6 6 6 5 5 5 5 5 5 5 5 5 5 6 5 5 5 5 6 7 6 6 7
2 2 2 2 3 3 3 2 2 2 2 1 1 1 1 1 1 1 1 1 1 1 0 1 2 2 2 4 4 4 4 4 4 4 4 4 4 4 5 5 4 5 5 5 6 6 6 6 5 4 5 6 6 6 6 6 6 5 4 4 4 5 5 5 6 5 5 6 7
2 2 2 2 3 3 2 2 3 3 2 2 2 1 1 1 0 0 0 0 1 1 1 1 2 1 1 3 4 4 3 4 4 4 3 4 4 4 5 5 4 4 5 5 6 6 6 6 4 4 4 5 5 5 6 8 7 6 4 3 4 4 5 6 5 5 5 5 6
3 2 2 2 2 2 2 2 2 2 2 2 2 2 1 1 1 1 1 1 1 1 1 2 2 1 1 3 3 3 2 3 3 3 3 4 4 5 5 5 5 5 5 5 5 6 6 5 4 4 4 4 4 5 7 8 7 6 5 4 4 4 5 6 5 5 5 6 8
2 2 2 2 2 3 3 3 3 2 2 2 3 3 2 2 2 1 1 0 0 1 1 2 2 1 1 3 2 2 2 2 2 3 3 3 4 4 5 5 5 5 5 5 5 5 5 4 4 4 4 4 4 5 7 7 7 7 6 6 4 4 5 6 6 6 6 8 9
1 2 2 2 3 3 4 4 3 3 2 2 3 3 3 3 2 2 2 2 1 1 1 1 1 1 2 2 2 2 2 2 2 3 3 3 4 4 4 4 5 5 5 5 5 5 5 4 3 4 4 4 3 5 6 8 8 8 8 7 6 5 5 5 6 6 7 9 10
1 1 2 2 3 4 4 4 3 3 3 2 3 3 3 3 3 3 2 2 2 1 1 1 0 1 2 2 2 2 2 2 2 2 3 3 3 4 4 4 4 4 4 4 4 5 4 3 3 3 4 4 4 5 6 8 8 9 8 7 6 6 6 6 7 8 8 9 10
2 2 2 3 3 3 4 4 3 3 3 3 3 3 3 4 3 3 2 1 1 1 1 1 1 0 1 1 1 2 2 2 2 2 3 3 3 3 3 3 4 4 4 4 4 4 4 3 4 4 4 4 5 6 6 7 8 8 8 6 7 8 8 8 8 9 9 9 10
3 3 3 3 4 4 4 4 3 2 2 2 2 2 3 3 3 3 2 2 1 2 2 2 1 1 0 1 1 1 1 1 1 2 2 3 3 3 3 3 4 4 4 4 4 4 3 3 4 5 5 5 5 6 6 7 7 8 8 7 8 9 9 9 9 9 9 9 10
3 3 3 3 4 4 4 4 3 3 2 2 2 2 2 2 3 3 3 3 2 2 2 1 1 1 1 1 1 1 1 1 2 2 3 3 3 3 3 3 4 4 4 4 4 3 3 3 4 5 6 6 5 5 6 7 7 8 8 9 9 9 10 10 10 9 8 9 10
3 3 3 3 4 4 4 4 3 3 2 2 2 2 2 1 2 3 3 3 3 2 1 1 1 1 1 1 1 1 1 2 2 2 3 3 3 4 4 4 4 4 4 4 3 3 3 4 5 5 6 6 5 5 6 7 7 8 8 9 10 10 10 11 10 10 10 10 10
3 3 4 4 4 4 4 4 4 3 3 3 2 2 1 1 2 2 2 2 2 2 1 1 0 1 1 1 1 1 2 2 3 3 3 3 4 4 4 4 4 3 3 3 3 4 4 4 5 5 6 6 6 6 6 6 7 7 8 9 10 10 10 10 10 10 10 11 11
4 4 4 4 4 4 4 4 3 3 3 3 2 2 1 1 1 2 2 1 1 2 1 1 1 1 1 2 2 2 2 3 3 3 3 4 4 4 4 4 4 4 3 3 3 4 4 4 4 5 5 6 6 6 6 6 7 7 8 8 9 10 10 10 10 10 11 11 11
4 4 4 4 4 4 4 4 3 3 3 3 2 1 1 1 1 2 2 1 1 2 2 1 1 1 1 2 3 3 3 2 3 3 3 3 3 4 4 4 4 4 4 4 4 4 4 4 4 4 5 5 5 6 6 6 6 7 7 8 8 9 9 10 10 10 11 11 11
4 5 5 5 5 4 4 4 3 3 3 3 2 1 1 1 2 2 3 2 2 2 2 2 1 1 1 2 3 3 3 2 2 2 2 2 2 3 3 3 3 3 3 4 4 4 4 4 4 4 4 5 5 5 5 6 6 6 7 7 8 8 9 9 10 10 10 11 11
5 5 5 5 5 5 5 5 4 4 4 3 2 2 2 2 3 3 3 2 2 3 3 2 1 1 2 3 3 3 2 2 1 1 2 2 2 2 2 2 3 3 3 3 3 4 4 5 4 4 4 4 5 5 5 5 6 6 7 7 7 8 8 9 9 9 9 10 11
5 6 6 6 6 6 5 5 5 4 4 3 3 2 3 3 4 4 3 2 2 2 2 2 1 2 2 3 3 3 3 2 1 1 2 2 2 3 3 3 2 2 2 2 3 3 4 4 4 4 4 4 4 5 5 5 6 6 6 6 7 7 8 8 9 9 9 10 10
6 6 7 7 6 6 5 5 5 4 3 3 3 3 3 4 5 4 4 3 2 2 2 2 1 1 2 2 3 4 3 2 1 1 2 2 3 3 3 3 3 2 1 2 3 3 4 4 4 4 4 5 5 5 5 6 6 6 6 6 6 7 7 8 8 9 9 9 10
7 7 7 7 6 5 5 4 4 3 3 3 3 3 4 4 5 5 4 4 3 2 2 1 1 1 1 2 3 4 3 1 1 1 2 2 3 3 3 3 3 2 1 2 2 3 3 4 4 4 4 5 5 5 5 5 6 6 6 6 6 6 7 7 8 8 9 9 10
6 6 6 6 5 5 4 3 3 3 3 3 3 3 4 5 5 5 4 4 3 2 2 1 1 1 1 1 2 3 3 1 1 1 2 2 2 3 3 3 3 2 1 1 3 3 3 3 4 4 4 4 5 5 5 6 6 6 6 6 6 6 7 7 7 8 8 9 9
5 5 5 5 4 4 4 3 3 3 3 3 3 4 4 5 5 4 4 4 3 2 2 2 1 1 1 1 0 2 3 2 1 1 2 2 2 2 3 3 3 3 2 0 3 3 3 2 3 3 3 4 4 5 5 6 5 5 5 6 6 6 7 7 7 7 8 8 8
5 4 4 4 4 4 4 4 3 3 3 3 4 4 5 5 5 5 4 4 3 3 2 1 1 0 1 2 1 1 3 3 1 1 2 3 2 2 2 2 3 3 2 1 3 4 4 3 2 2 3 3 3 4 5 5 5 5 5 6 6 6 6 7 7 7 8 8 8
5 5 5 4 4 4 4 4 4 4 4 3 4 5 5 6 5 5 4 4 3 3 2 2 0 0 1 2 1 1 2 3 1 1 2 2 2 2 2 2 2 2 2 2 5 6 6 5 3 2 2 3 3 3 4 4 5 5 6 6 6 6 6 7 8 8 8 8 8
5 5 5 5 5 5 4 4 4 4 3 3 4 5 5 6 6 5 5 4 4 3 3 2 1 1 1 1 1 2 3 2 1 1 1 2 2 2 2 2 2 2 2 4 6 7 7 7 6 4 3 3 3 3 3 4 5 5 6 6 6 6 7 7 8 8 8 8 8
6 6 6 5 5 5 5 5 4 3 3 4 5 5 6 6 6 5 5 5 4 3 2 1 1 1 1 1 1 2 3 2 1 1 1 2 2 2 2 2 2 2 3 6 7 7 7 7 7 6 5 3 3 3 3 4 4 5 5 5 6 6 7 7 8 8 8 8 8
7 7 6 6 6 6 5 4 4 4 4 5 5 6 6 6 6 6 5 5 4 3 2 1 1 0 1 1 1 2 3 2 1 1 2 2 2 2 2 2 2 3 5 7 7 7 7 7 7 7 6 5 3 3 4 4 4 4 4 4 5 6 7 7 7 7 8 8 8
8 7 7 7 7 6 5 5 5 5 5 5 5 6 6 7 7 6 6 5 5 4 3 2 1 1 1 1 1 2 3 3 1 0 1 2 2 2 2 2 2 4 6 7 7 7 7 7 7 7 7 6 4 3 3 3 3 4 4 4 5 5 6 6 6 6 7 7 8
8 8 8 8 8 7 6 6 5 5 4 4 5 6 7 7 7 7 6 6 5 4 3 2 2 2 2 2 1 2 3 3 2 0 1 2 2 2 2 2 3 4 6 7 7 7 8 8 8 8 8 7 5 3 3 3 3 3 4 4 5 5 6 6 7 7 7 6 7
8 9 9 9 8 8 7 6 5 4 4 4 5 6 7 8 8 7 7 6 5 4 3 3 3 3 2 1 1 2 3 3 2 1 0 1 2 2 2 2 2 4 6 7 7 8 8 8 8 8 8 7 5 4 3 3 4 4 4 4 5 5 6 6 6 6 7 7 7
9 9 9 9 9 8 7 6 5 5 5 6 6 7 7 8 7 7 6 6 5 5 4 3 3 3 2 2 1 1 2 3 2 1 0 1 2 2 2 2 2 4 6 7 7 8 8 8 8 8 8 8 6 5 4 4 4 4 4 5 6 6 6 6 5 6 7 7 6
9 9 9 10 9 8 7 6 6 6 6 6 7 7 7 7 6 6 5 5 5 5 5 4 4 4 3 3 2 2 2 3 2 1 1 1 2 2 2 2 2 4 7 8 7 8 8 8 8 9 9 9 6 5 4 4 4 4 4 5 5 6 6 6 6 6 6 7 6
10 10 10 10 9 9 8 7 6 6 6 7 7 7 7 7 6 6 6 5 4 4 4 4 4 4 3 3 3 3 2 2 1 1 1 1 2 3 3 2 2 4 7 8 8 8 8 8 8 8 9 8 6 4 4 4 4 4 5 5 5 5 6 6 6 6 7 7 6
11 11 10 10 9 9 8 8 7 7 7 7 7 7 7 7 7 7 6 6 5 4 3 3 2 2 2 2 2 2 2 2 1 1 1 1 2 3 3 3 2 5 8 9 8 8 8 8 8 8 8 7 5 4 4 4 4 5 5 5 5 6 6 6 6 6 6 6 6
11 12 11 11 10 9 9 9 8 8 8 8 8 8 7 7 7 7 7 7 5 4 3 3 2 2 2 2 1 1 2 2 1 1 1 2 2 2 3 3 3 4 7 9 8 8 8 8 8 8 8 6 4 3 3 4 4 5 5 5 5 5 5 5 5 5 5 5 6
12 12 12 11 11 10 10 10 9 9 9 9 9 8 8 7 6 6 6 7 5 5 4 4 3 3 3 3 2 1 1 1 2 2 2 2 2 2 2 3 3 4 6 9 9 9 9 8 8 8 7 5 3 3 3 4 4 4 5 5 5 4 4 4 4 4 5 5 6
12 12 12 12 12 11 11 10 10 10 10 10 8 8 7 7 6 6 6 7 6 5 5 4 4 4 4 3 2 2 1 1 1 2 2 2 2 2 2 2 3 3 4 8 8 9 9 9 8 8 7 4 3 3 3 3 3 3 4 4 4 4 3 3 3 3 4 5 7
11 12 12 12 12 12 12 11 11 11 11 9 8 7 7 6 6 6 7 7 6 6 6 6 5 5 4 4 3 2 1 1 1 1 2 2 1 2 2 2 2 3 3 7 8 9 9 9 9 9 7 4 3 3 3 3 3 3 3 3 3 3 3 2 2 3 3 5 8
11 11 12 12 12 12 12 12 12 11 10 9 8 8 7 7 6 6 6 6 5 6 6 6 6 5 4 4 4 3 2 1 1 1 1 1 1 2 2 2 2 3 3 5 8 9 9 10 10 9 8 4 3 3 3 3 3 3 3 3 3 3 2 2 2 2 3 4 6
11 11 11 12 12 12 13 13 12 10 9 8 9 8 7 7 6 6 6 5 5 5 5 5 6 6 5 5 4 4 4 2 1 1 1 1 1 1 2 1 1 3 3 3 7 9 9 10 10 10 8 5 4 3 3 3 3 3 4 4 3 3 2 2 2 2 3 3 4
Wind_Direction
191 194 193 189 188 187 191 200 198 190 183 182 182 184 183 177 187 207 238 281 284 261 270 290 49 50 22 348 339 335 335 341 356 359 359 358 356 356 357 359 2 7 10 9 358 350 343 338 333 329 326 327 325 326 337 5 358 350 345 345 347 347 344 340 339 337 336 334 331
197 203 204 203 193 185 184 195 199 194 188 193 186 180 178 178 190 196 206 256 286 278 272 296 48 42 12 342 334 330 332 341 357 1 359 354 355 356 357 359 360 6 11 10 360 352 343 338 333 330 329 331 329 331 338 355 357 352 349 351 352 350 347 343 342 339 336 335 333
192 198 204 208 194 184 182 188 190 192 191 202 188 180 175 178 195 190 190 208 257 265 273 330 46 31 360 331 326 325 330 344 357 359 357 352 354 356 358 359 359 5 10 10 0 352 344 338 333 331 333 334 335 338 343 347 349 351 353 354 356 355 351 346 342 340 338 337 335
191 193 194 199 193 191 188 181 178 179 179 174 173 177 184 184 188 199 209 207 262 274 319 52 61 32 350 320 318 322 334 354 358 358 355 354 356 357 358 359 359 4 9 8 359 352 345 340 335 333 334 333 336 344 351 347 344 346 352 357 1 359 355 347 343 340 339 338 337
204 204 201 197 194 193 189 179 169 167 167 164 157 156 159 170 174 198 205 114 14 11 46 80 80 54 336 304 307 319 339 360 1 359 358 358 359 359 359 1 1 6 8 6 358 352 347 342 337 335 335 332 340 351 355 349 344 343 346 356 6 5 359 350 345 341 340 340 341
201 208 209 208 194 186 182 179 168 162 159 152 134 121 110 102 79 60 46 49 14 4 20 60 70 58 314 286 298 318 347 9 3 359 357 356 357 359 360 1 3 7 8 3 356 352 348 344 341 338 336 334 342 354 357 354 349 346 345 350 2 6 2 355 347 342 341 343 344
188 192 198 203 188 177 172 171 167 163 156 138 124 121 120 114 99 98 104 90 359 357 14 39 43 17 301 284 296 315 340 10 6 3 359 353 354 357 359 1 3 5 5 360 355 353 349 346 344 341 338 336 345 356 360 358 356 353 350 351 356 2 4 360 350 345 343 345 348
192 194 195 190 181 174 171 168 165 162 155 142 135 139 142 137 133 140 154 161 168 136 60 43 16 321 296 295 309 320 334 358 5 6 3 355 351 354 359 3 4 3 1 357 355 352 349 347 348 345 340 338 348 357 1 1 1 360 357 354 353 357 2 4 356 350 347 347 351
210 209 198 183 179 174 171 169 167 162 155 149 150 153 153 149 149 154 159 157 149 130 108 90 10 307 307 319 336 345 350 357 360 4 3 356 350 351 357 4 5 3 359 355 353 351 349 351 353 350 345 344 353 360 3 4 6 5 2 358 356 356 360 7 2 356 352 352 354
200 194 184 179 179 174 169 167 168 163 155 154 161 159 154 148 150 150 145 127 117 118 130 145 153 229 316 355 14 6 349 343 353 3 3 358 350 349 353 5 7 5 359 353 350 348 350 355 357 354 351 350 357 2 5 8 10 9 6 2 359 360 2 9 7 2 357 357 357
191 183 177 175 174 169 164 162 166 164 159 160 164 158 151 145 144 136 129 128 136 148 157 161 158 164 145 60 65 45 3 344 4 9 6 358 352 351 356 8 13 9 1 353 348 348 351 1 359 358 356 357 1 4 7 10 14 13 10 5 3 3 6 10 10 6 1 358 359
185 178 175 173 168 165 163 163 165 167 170 170 163 157 154 146 138 133 137 156 166 167 167 174 163 143 115 90 93 81 46 10 18 15 9 5 1 359 1 10 16 13 5 355 348 347 353 4 5 2 0 2 5 7 8 12 16 17 14 9 6 6 8 10 11 9 4 1 2
177 172 172 170 167 165 165 165 167 172 178 183 171 168 162 143 140 145 155 170 166 165 175 217 177 138 114 103 96 80 51 26 23 20 18 16 10 6 7 12 16 14 7 357 349 348 354 6 8 6 4 6 9 9 11 15 20 21 18 13 10 9 9 9 10 9 7 5 6
174 173 173 172 170 170 170 169 171 177 186 193 181 174 164 106 143 158 168 169 153 147 153 263 225 151 131 116 93 68 52 36 30 26 24 20 13 10 10 11 12 12 8 1 356 358 2 8 9 7 7 9 11 12 13 17 22 24 23 19 14 11 9 8 8 8 9 8 9
179 179 178 175 175 176 176 174 176 181 189 197 188 173 146 90 140 156 158 139 139 135 138 198 215 156 129 111 86 69 55 41 34 30 25 19 13 9 7 6 4 5 6 7 7 7 7 6 6 7 8 11 13 15 16 19 24 26 27 24 18 13 9 8 7 8 9 10 10
183 183 181 179 181 183 184 181 181 184 189 197 195 173 129 105 137 153 157 151 143 134 141 178 212 170 122 103 90 80 69 58 46 38 29 18 9 6 4 1 357 356 360 9 13 11 8 5 6 7 10 14 16 18 20 23 26 28 29 28 22 16 11 9 8 8 9 11 11
185 186 185 186 188 190 190 187 185 187 190 194 193 176 147 140 153 159 160 153 136 134 145 182 211 167 117 100 93 91 89 82 60 42 26 9 359 356 354 351 348 350 356 8 14 12 6 1 2 6 11 16 19 22 24 26 27 29 29 30 26 20 14 10 9 9 10 11 12
189 189 189 192 196 196 193 189 189 190 191 190 185 174 164 162 159 157 152 139 126 132 147 176 180 149 122 111 108 109 108 96 63 30 5 351 344 340 338 337 337 343 353 10 19 16 9 1 1 6 13 19 22 24 26 28 28 28 28 30 28 23 18 13 11 10 10 11 11
192 191 192 197 201 200 196 191 191 190 188 184 176 168 166 168 161 154 146 136 123 127 139 165 161 147 132 125 122 119 114 102 63 14 352 341 337 335 333 331 330 337 357 20 27 22 13 3 3 8 15 20 24 26 28 29 29 27 26 27 29 26 21 16 13 12 12 12 12
193 193 194 199 201 201 198 193 190 185 179 173 167 165 165 169 162 156 152 152 136 124 128 159 162 156 145 136 127 121 116 106 58 358 341 335 332 330 326 324 324 333 2 42 39 29 17 9 7 9 15 21 24 27 28 29 28 26 24 24 27 27 24 18 15 13 12 13 13
197 196 195 197 198 200 198 193 185 177 169 168 167 166 166 167 165 162 158 155 143 135 137 158 167 171 163 146 130 123 118 108 47 339 328 323 324 321 317 316 319 325 357 73 67 45 24 15 14 14 17 22 24 26 28 30 28 25 22 20 23 25 25 22 18 15 13 14 14
200 197 194 194 196 196 193 185 177 172 170 173 170 166 163 164 166 164 158 150 142 144 156 166 170 183 199 189 130 123 118 104 26 329 318 314 316 315 314 315 321 327 342 99 108 90 53 23 19 17 18 22 23 26 29 31 28 25 21 18 21 23 25 24 21 19 16 14 14
198 192 187 186 190 188 182 175 174 175 178 178 169 162 159 163 163 160 154 150 148 157 169 176 174 199 250 286 125 117 114 99 35 340 323 317 318 320 321 323 330 335 339 53 131 119 96 49 26 18 18 23 27 29 31 33 30 26 23 21 22 23 23 23 22 21 19 16 15
190 183 177 176 182 181 178 172 177 184 186 181 168 160 158 160 159 156 154 156 159 165 170 174 169 233 284 292 295 116 114 105 67 353 332 326 332 336 338 336 340 341 341 3 119 119 112 96 55 24 18 25 32 35 36 34 30 28 26 26 25 24 22 20 21 21 20 18 15
181 175 171 170 175 178 179 179 186 190 189 177 163 157 156 158 158 158 159 162 166 167 168 168 187 279 283 276 255 140 117 108 89 21 352 346 354 357 355 349 347 347 357 33 78 91 98 102 91 59 28 28 36 40 40 37 33 32 32 31 29 27 24 21 19 19 19 18 15
174 172 172 172 173 177 184 191 193 191 182 164 155 156 159 161 160 160 161 163 166 166 166 173 217 239 231 237 183 137 119 108 96 25 358 353 2 7 6 356 354 358 25 50 61 68 77 86 88 81 61 36 38 43 44 41 36 35 34 33 31 30 28 25 20 18 18 17 13
174 176 177 173 173 181 190 195 191 182 169 157 157 160 163 164 162 161 161 162 163 164 169 190 212 186 143 137 143 130 121 112 84 344 333 332 354 6 9 359 360 22 49 61 63 65 69 76 82 81 74 53 44 44 45 44 39 37 36 34 32 32 31 29 24 20 17 15 12
180 180 176 170 178 185 190 188 182 176 171 166 165 163 162 163 162 162 161 160 159 162 170 200 198 125 96 110 130 127 120 108 71 347 328 326 355 10 10 360 15 49 64 68 68 68 70 73 78 80 76 63 51 44 44 45 42 40 38 37 35 34 33 31 25 21 18 14 12
180 177 173 174 181 184 183 181 182 181 176 170 164 160 160 163 163 162 159 158 160 167 176 187 158 113 100 119 132 129 123 117 112 360 344 357 16 18 12 8 34 60 70 73 72 72 72 72 75 78 77 70 57 46 44 47 47 45 43 42 38 36 35 32 28 24 20 17 14
178 175 175 179 181 181 181 183 183 179 172 164 159 159 161 164 164 163 162 163 169 174 174 156 134 127 129 138 141 140 140 143 156 191 342 354 13 17 16 15 47 68 76 76 77 76 75 75 76 78 79 77 65 55 50 53 53 50 47 44 41 39 37 35 30 27 23 19 15
177 176 177 178 180 181 182 181 174 168 162 160 160 162 165 167 167 167 168 169 171 169 157 132 131 137 141 134 138 149 154 156 160 165 320 339 6 10 10 11 59 79 83 81 81 79 78 77 78 79 81 80 70 60 54 56 56 54 49 46 43 40 38 37 30 25 21 19 14
178 177 177 177 180 181 178 170 164 161 162 163 165 168 169 170 171 170 168 166 162 158 153 144 145 145 141 129 136 157 164 157 150 148 147 338 353 354 357 360 61 87 90 86 84 83 81 81 80 81 80 78 69 61 55 57 57 54 50 46 44 42 40 37 28 20 16 14 10
179 178 178 179 180 178 172 162 160 162 165 167 170 172 172 171 168 165 162 159 156 157 160 164 161 157 152 148 151 157 158 152 136 113 77 25 9 5 2 357 53 90 93 90 88 86 85 83 83 82 80 75 69 60 55 58 58 55 51 46 44 43 41 37 27 18 12 10 8
181 179 179 179 178 174 167 161 161 163 166 169 174 174 172 167 165 164 163 163 160 161 164 166 162 159 157 153 155 157 158 152 120 89 63 23 19 17 11 355 31 87 94 92 90 89 87 86 86 85 84 79 73 64 60 65 65 61 55 49 45 43 42 39 28 18 10 7 5
181 179 179 179 176 172 167 162 162 164 168 172 175 176 173 169 167 168 168 168 163 157 154 151 145 142 141 145 155 158 158 149 117 87 70 43 34 28 19 3 28 80 93 94 92 91 91 91 90 90 90 88 83 77 75 77 75 70 63 55 50 48 47 43 31 18 7 1 360
182 180 178 177 175 171 168 164 164 167 171 175 176 176 175 173 171 169 166 163 157 151 147 142 136 137 144 157 164 160 151 144 136 115 83 66 53 40 24 8 26 73 91 94 94 94 94 94 93 93 94 96 96 94 91 89 85 79 72 63 55 50 48 47 36 20 4 356 357
184 181 177 174 173 172 170 167 168 172 176 178 178 177 175 174 171 167 163 160 155 154 154 153 156 162 168 172 165 148 125 140 140 127 109 89 76 56 34 12 17 61 86 94 94 95 95 95 94 94 94 97 101 101 99 95 91 85 78 71 61 53 48 48 39 22 6 356 359
186 182 177 174 173 172 171 171 173 176 179 180 178 176 173 170 167 166 165 164 160 160 162 164 169 175 175 169 148 116 79 71 128 128 122 110 101 82 53 22 8 34 72 91 93 94 95 95 94 94 96 100 103 101 98 94 90 86 82 76 67 55 47 44 35 19 6 359 4
186 183 179 175 173 173 173 174 178 180 180 178 175 172 170 169 167 168 169 168 164 164 166 170 174 175 168 154 135 114 84 37 64 110 122 123 129 114 89 46 3 11 49 86 93 94 94 93 93 92 93 97 100 98 93 88 84 80 77 74 68 57 46 38 31 18 6 358 6
186 184 181 177 174 174 174 177 180 180 178 174 172 171 170 170 167 165 165 164 162 164 167 170 169 165 158 149 137 128 114 79 37 53 86 105 120 109 99 74 358 351 22 77 91 94 93 93 91 89 87 87 90 93 92 89 83 77 73 67 62 53 42 28 25 18 8 357 360
184 184 183 179 176 175 176 178 179 178 175 172 171 170 168 165 159 157 158 157 160 163 165 165 161 158 156 154 144 135 129 122 102 58 42 28 26 51 67 67 334 324 339 52 89 93 92 92 91 89 87 84 85 90 95 94 86 80 74 68 61 53 41 27 21 15 11 2 355